Other Public Products
Issued by NWS Grand Forks, ND

Home | Current Version | Previous Version | Graphics & Text | Print | Product List | Glossary On
Versions: 1 2 3 4 5 6 7 8 9 10 11 12 13 14 15 16 17 18 19 20 21 22 23 24 25 26 27 28 29 30 31 32 33 34 35 36 37 38 39 40 41 42 43 44 45 46 47 48 49 50
715
FPUS83 KFGF 191610
OPUFGF
PRAIRIE TO PINES WEATHER ROUNDUP
NATIONAL WEATHER SERVICE EASTERN NORTH DAKOTA/GRAND FORKS ND
1100 AM CDT THU OCT 19 2017

 **SATELLITE DATA USED TO AUGMENT SKY COVER AT AUTOMATED STATIONS**
 *****  WEATHER ACROSS EASTERN NORTH DAKOTA  *****

CITY           SKY/WX    TMP DP  RH WIND       PRES   REMARKS
GRAND FORKS    FAIR      54  32  43 S15       29.83F
GRAND FORKS AF FAIR      53  29  39 S15       29.81F
GRAND CITY NWS NOT AVBL
BUXTON         NOT AVBL
DEVILS LAKE    FAIR      53  34  48 S5        29.78S
FARGO          FAIR      57  33  40 S14       29.87F
WAHPETON ARPT  NOT AVBL
$$

 *****  WEATHER ACROSS CENTRAL AND WESTERN NORTH DAKOTA  *****

CITY           SKY/WX    TMP DP  RH WIND       PRES   REMARKS
JAMESTOWN      FAIR      57  37  47 SW12      29.80F
BISMARCK       FAIR      55  37  50 S8        29.81S
MINOT          FAIR      56  32  40 S12       29.71S
MINOT AFB      FAIR      55  32  41 SW9       29.69S
GARRISON         N/A     51  34  52 S5        29.76S
WILLISTON      FAIR      49  34  56 S8        29.74R
DICKINSON      FAIR      65  32  29 SW6       29.78R
HETTINGER      FAIR      66  29  24 W7        29.83F
$$

 *****  OTHER OBSERVATIONS NORTHEAST NORTH DAKOTA  *****

CITY           SKY/WX    TMP DP  RH WIND       PRES   REMARKS
WALHALLA       FAIR     N/A N/A N/A SE13      29.78F
LANGDON        FAIR      54  30  40 S15       29.78R
CAVALIER       FAIR      50  28  43 SE7       29.79F
GRAFTON        FAIR      50  30  46 S17       29.82F
CANDO          FAIR      50  32  50 S8        29.77F
FORT TOTTEN      N/A     53  31  43 S8        29.95
ROLLA          FAIR      48  28  46 SW15      29.74S
RUGBY          FAIR      50  32  50 S8        29.74S
 ***** THE ABOVE OBSERVATIONS ARE NON NWS ARE NOT QUALITY
        CONTROLLED AND MAY MIS-REPORT RAIN FOR SNOW...
$$

 *****  OTHER OBSERVATIONS SOUTHEAST NORTH DAKOTA *****

CITY           SKY/WX    TMP DP  RH WIND       PRES   REMARKS
COOPERSTOWN    FAIR      55  34  44 S16       29.81F
VALLEY CITY    FAIR      54  36  50 S21G29    29.83F
OAKES          NOT AVBL
GWINNER        SUNNY     61  34  36 SW17G28   29.86S
SHEYENNE NWR     N/A     57  36  45 S9        29.95
BUFFALO        NOT AVBL
WYNDMERE       NOT AVBL
 ***** THE ABOVE OBSERVATIONS ARE NON NWS ARE NOT QUALITY
       CONTROLLED AND MAY MIS-REPORT RAIN FOR SNOW...
$$

  *****  WEATHER ACROSS NORTHERN MINNESOTA  *****

CITY           SKY/WX    TMP DP  RH WIND       PRES   REMARKS
FLAG ISLAND    FAIR      46  30  53 S6        29.87S
WARROAD        FAIR      52  28  40 S7        29.88F
ROSEAU         FAIR      52  30  43 S10       29.86F
HALLOCK        FAIR      54  25  32 S16       29.82F
THF RVR FALLS  FAIR      55  28  35 S12       29.88F
HALSTAD        NOT AVBL
FOSSTON        FAIR      57  28  33 S12       29.89F
BAUDETTE       FAIR      51  26  37 S8        29.91R
WASKISH        PTSUNNY   55  28  35 SE5       29.93S
CROOKSTON      FAIR      57  30  35 S14       29.86F
$$
  *****  WEATHER ACROSS CENTRAL AND WEST MINNESOTA  *****

CITY           SKY/WX    TMP DP  RH WIND       PRES   REMARKS
BEMIDJI        FAIR      56  29  36 SE8       29.94S
PARK RAPIDS    FAIR      56  33  42 S9        29.95F
WADENA         FAIR      59  34  38 S15G21    29.95F
DETROIT LAKES  FAIR      59  32  36 S13       29.92F
MOORHEAD       FAIR      57  30  35 S16       29.89R
FERGUS FALLS   FAIR      61  36  39 S16G22    29.93F
ELBOW LAKE     FAIR      59  36  41 S16       29.94F
MORRIS MN      FAIR      57  36  44 S18       29.94F
STAPLES        FAIR      57  28  33 S9G17     29.98S
WHEATON        FAIR      61  34  36 S12       29.92F
$$
  *****  WEATHER ELSEWHERE ACROSS MINNESOTA  *****

CITY           SKY/WX    TMP DP  RH WIND       PRES   REMARKS
DULUTH         FAIR      57  29  34 W9        30.00S
INTRNTL FALLS  FAIR      52  23  32 SW9       29.93R
ELY            FAIR      50  18  27 W12G20    29.96R
CLOQUET        FAIR      55  27  33 SW7       30.02R
BRAINERD       FAIR      56  31  38 S9        30.01S
HIBBING        FAIR      53  26  35 VRB6      29.99R
ALEXANDRIA     FAIR      61  32  33 S17G24    29.98F
SAINT CLOUD    FAIR      55  34  45 S9        30.03F
MINNEAPOLIS    PTSUNNY   56  37  49 S3        30.08S
$$

  *****  WEATHER ACROSS SOUTH DAKOTA  *****

CITY           SKY/WX    TMP DP  RH WIND       PRES   REMARKS
SIOUX FALLS    FAIR      61  39  44 S15       30.04S
BROOKINGS      FAIR      58  37  45 S15       30.01F
WATERTOWN      FAIR      60  41  49 S15G24    29.94F
HURON          FAIR      57  38  48 S12       29.94F
SISSETON         N/A     66  37  34 S21G32    29.88S
ABERDEEN       FAIR      57  36  45 S20G26    29.88F
MITCHELL       FAIR      60  40  47 S15       29.98F
PIERRE         FAIR      59  40  49 SE9       29.86F
MOBRIDGE       FAIR      57  41  55 S12       29.82F
RAPID CITY     FAIR      69  24  18 NW5       29.87F
$$

  *****  SOME WEATHER IN NEARBY STATES *****

CITY           SKY/WX    TMP DP  RH WIND       PRES   REMARKS
GLASGOW MT     FAIR      57  40  52 E7        29.68S
GREAT FALLS MT FAIR      65  20  17 S18G26    29.69R
CHEYENNE WY    FAIR      64  21  19 W8        30.10R
SCOTTSBLUFF NE FAIR      52  33  48 SE5       30.02S
OMAHA NE       FAIR      64  49  57 SE9       30.09S
DES MOINES IA  PTSUNNY   64  34  32 SE12      30.13S
DAVENPORT IA   FAIR      64  32  30 E14       30.19S
CHICAGO IL     FAIR      64  26  23 NE6       30.19R
EAU CLAIRE WI  FAIR      56  34  43 S6        30.11R
LA CROSSE WI   FAIR      58  37  45 S7        30.13F
$$

  *****  SOME NATIONAL WEATHER *****

CITY           SKY/WX    TMP DP  RH WIND       PRES   REMARKS
LA GUARDIA NY  FAIR      67  42  40 SW16G22   30.22F
RALEIGH NC     FAIR      66  52  60 CALM      30.32F
ATLANTA GA     FAIR      66  42  41 E6        30.33F
NEW ORLEANS LA FAIR      74  67  78 NE8       30.20R
OKLAHOMA CITY  PTSUNNY   66  49  54 S14       30.15S
ALBUQUERQUE NM PTSUNNY   59  31  34 NW3       30.17S
SALT LAKE CITY FAIR      56  28  34 SE9       30.00F
LOS ANGELES CA FAIR      69  62  78 VRB3      29.92R
BOISE ID       FAIR      55  27  34 SE13      29.84S
SEATTLE WA     LGT RAIN  52  51  97 SE7       29.57S FOG
$$

*** WEATHER ACROSS MANITOBA...SASKATCHEWAN AND ONTARIO ***
                ***ONTARIO***

CITY           SKY/WX    TMP DP  RH WIND       PRES   REMARKS
GERALDTON      PTSUNNY   48  30  49 W18G29    29.72R
THUNDER BAY    CLOUDY    54  25  32 W13G26    29.88R
SIOUX LOOKOUT  PTSUNNY   45  28  53 W13       29.84R
TORONTO        MOSUNNY   66  48  52 SW18G25   29.99F
BIG TROUT LK   CLOUDY    37  34  87 NW22G30   29.59R
PICKLE LAKE    PTSUNNY   41  28  60 W20G29    29.73R
DRYDEN         PTSUNNY   46  27  46 W10G17    29.86R
KENORA         PTSUNNY   46  23  39 SW6       29.87R
$$
                *** MANITOBA***

CITY           SKY/WX    TMP DP  RH WIND       PRES   REMARKS
BRANDON        CLOUDY    45  28  53 SE6       29.71S
DAUPHIN          N/A     46  21  36 SE9       29.64F
ISLAND LAKE    CLOUDY    36  30  80 NW9       29.76R
PILOT MOUND      N/A     52  28  40 S16         N/A
THE PAS        PTSUNNY   32  28  86 SE10G17   29.67F WCI  24
THOMPSON       PTSUNNY   34  30  86 NE7       29.76R
WINNIPEG       PTSUNNY   48  21  34 SE12      29.79F
LYNN LAKE      FLURRIES  30  28  93 SE10      29.69S WCI  21
CHURCHILL      FLURRIES  34  32  93 NE18      29.78R WCI  23
GILLAM         CLOUDY    36  32  87 N10       29.74R
$$
                ***SASKATCHEWAN***

CITY           SKY/WX    TMP DP  RH WIND       PRES   REMARKS
ESTEVAN        PTSUNNY   54  30  40 SW18      29.66S
KINDERSLEY     PTSUNNY   57  34  41 W18G31    29.43R
LLOYDMINSTER   PTSUNNY   43  34  70 W6        29.38R
PRINCE ALBERT  PTSUNNY   39  25  56 E13       29.47S
REGINA         CLOUDY    54  32  43 SE9       29.58S
YORKTON        SUNNY     46  27  46 S10G17    29.57S



USA.gov is the U.S. government's official web portal to all federal, state and local government web resources and services.